TimeEDT,TemperatureF,Dew PointF,Humidity,Sea Level PressureIn,VisibilityMPH,Wind Direction,Wind SpeedMPH,Gust SpeedMPH,PrecipitationIn,Events,Conditions,WindDirDegrees,DateUTC
12:17 AM,61.2,30.9,32,30.21,10.0,ESE,8.1,-,N/A,,Clear,110,2013-05-03 04:17:00
12:36 AM,60.6,31.3,33,30.20,10.0,ESE,6.9,-,N/A,,Clear,110,2013-05-03 04:36:00
12:57 AM,60.8,30.9,32,30.20,10.0,ESE,8.1,-,N/A,,Clear,120,2013-05-03 04:57:00
1:17 AM,60.3,31.3,34,30.20,10.0,ESE,9.2,-,N/A,,Clear,110,2013-05-03 05:17:00
1:36 AM,59.4,31.8,35,30.20,10.0,ESE,9.2,16.1,N/A,,Clear,110,2013-05-03 05:36:00
1:57 AM,58.6,32.2,37,30.20,10.0,East,8.1,-,N/A,,Clear,100,2013-05-03 05:57:00
2:17 AM,57.9,32.9,39,30.19,10.0,East,8.1,-,N/A,,Clear,100,2013-05-03 06:17:00
2:37 AM,56.8,33.3,41,30.19,10.0,East,8.1,-,N/A,,Clear,100,2013-05-03 06:37:00
2:57 AM,56.8,33.8,42,30.19,10.0,ESE,6.9,-,N/A,,Clear,110,2013-05-03 06:57:00
3:17 AM,55.6,34.5,45,30.19,10.0,East,8.1,-,N/A,,Clear,100,2013-05-03 07:17:00
3:37 AM,55.4,34.7,46,30.19,10.0,ESE,8.1,-,N/A,,Clear,110,2013-05-03 07:37:00
3:56 AM,55.0,35.1,47,30.18,10.0,ESE,6.9,-,N/A,,Clear,110,2013-05-03 07:56:00
4:17 AM,54.9,35.6,48,30.18,10.0,ESE,6.9,-,N/A,,Clear,110,2013-05-03 08:17:00
4:37 AM,54.5,35.8,49,30.19,10.0,ESE,6.9,-,N/A,,Clear,110,2013-05-03 08:37:00
4:57 AM,52.9,36.7,54,30.20,10.0,East,6.9,-,N/A,,Clear,100,2013-05-03 08:57:00
5:17 AM,52.2,36.9,56,30.20,10.0,ESE,5.8,-,N/A,,Clear,110,2013-05-03 09:17:00
5:37 AM,52.0,37.2,57,30.20,10.0,ESE,6.9,-,N/A,,Clear,110,2013-05-03 09:37:00
5:56 AM,51.8,37.4,58,30.20,10.0,East,4.6,-,N/A,,Clear,100,2013-05-03 09:56:00
6:17 AM,51.4,37.4,59,30.21,10.0,East,5.8,-,N/A,,Clear,100,2013-05-03 10:17:00
6:37 AM,51.3,37.8,60,30.21,10.0,East,4.6,-,N/A,,Clear,100,2013-05-03 10:37:00
6:57 AM,50.9,38.5,62,30.22,10.0,ESE,5.8,-,N/A,,Clear,110,2013-05-03 10:57:00
7:17 AM,52.5,38.5,59,30.22,10.0,East,5.8,-,N/A,,Clear,100,2013-05-03 11:17:00
7:37 AM,53.8,39.0,57,30.22,10.0,ESE,8.1,-,N/A,,Clear,110,2013-05-03 11:37:00
7:57 AM,56.1,38.5,52,30.23,10.0,ESE,9.2,-,N/A,,Clear,110,2013-05-03 11:57:00
8:17 AM,57.0,37.9,49,30.23,10.0,ESE,9.2,-,N/A,,Clear,120,2013-05-03 12:17:00
8:37 AM,56.7,37.8,49,30.23,10.0,ESE,8.1,-,N/A,,Clear,120,2013-05-03 12:37:00
8:56 AM,59.0,37.8,45,30.23,10.0,SE,10.4,-,N/A,,Clear,130,2013-05-03 12:56:00
9:17 AM,60.1,37.4,43,30.23,10.0,ESE,10.4,18.4,N/A,,Clear,120,2013-05-03 13:17:00
9:35 AM,59.9,37.0,43,30.23,10.0,ESE,8.1,-,N/A,,Clear,120,2013-05-03 13:35:00
9:57 AM,61.5,37.6,41,30.23,10.0,ESE,9.2,-,N/A,,Clear,110,2013-05-03 13:57:00
10:17 AM,63.0,36.5,37,30.22,10.0,ESE,6.9,-,N/A,,Clear,110,2013-05-03 14:17:00
10:36 AM,65.5,35.1,32,30.22,10.0,ESE,10.4,17.3,N/A,,Clear,120,2013-05-03 14:36:00
10:57 AM,66.2,32.5,29,30.22,10.0,SE,11.5,-,N/A,,Clear,130,2013-05-03 14:57:00
11:17 AM,66.6,32.5,28,30.22,10.0,SE,10.4,16.1,N/A,,Clear,140,2013-05-03 15:17:00
11:36 AM,68.2,32.5,27,30.22,10.0,SE,10.4,18.4,N/A,,Clear,130,2013-05-03 15:36:00
11:57 AM,68.2,32.4,26,30.22,10.0,SE,13.8,20.7,N/A,,Clear,130,2013-05-03 15:57:00
12:17 PM,69.3,32.0,25,30.20,10.0,SE,9.2,20.7,N/A,,Clear,140,2013-05-03 16:17:00
12:37 PM,69.6,32.7,26,30.19,10.0,ESE,11.5,21.9,N/A,,Clear,120,2013-05-03 16:37:00
12:57 PM,70.3,33.6,26,30.19,10.0,SE,9.2,19.6,N/A,,Clear,140,2013-05-03 16:57:00
1:17 PM,71.1,34.2,26,30.18,10.0,ESE,12.7,18.4,N/A,,Clear,120,2013-05-03 17:17:00
1:37 PM,71.6,34.3,25,30.18,10.0,ESE,12.7,20.7,N/A,,Clear,120,2013-05-03 17:37:00
1:57 PM,71.8,33.3,24,30.18,10.0,SE,11.5,23.0,N/A,,Clear,130,2013-05-03 17:57:00
2:17 PM,72.0,34.9,26,30.17,10.0,ESE,13.8,24.2,N/A,,Clear,120,2013-05-03 18:17:00
2:37 PM,72.9,35.6,26,30.17,10.0,SE,15.0,18.4,N/A,,Clear,130,2013-05-03 18:37:00
2:56 PM,72.1,34.9,26,30.16,10.0,SE,11.5,17.3,N/A,,Clear,140,2013-05-03 18:56:00
3:17 PM,72.9,35.1,25,30.16,10.0,SE,13.8,24.2,N/A,,Clear,130,2013-05-03 19:17:00
3:37 PM,73.8,36.1,25,30.15,10.0,ESE,15.0,23.0,N/A,,Clear,110,2013-05-03 19:37:00
3:57 PM,74.3,35.6,24,30.14,10.0,ESE,15.0,27.6,N/A,,Clear,120,2013-05-03 19:57:00
4:17 PM,74.5,35.6,24,30.13,10.0,SE,8.1,17.3,N/A,,Clear,130,2013-05-03 20:17:00
4:37 PM,73.8,33.6,23,30.13,10.0,SE,15.0,23.0,N/A,,Clear,140,2013-05-03 20:37:00
4:56 PM,73.9,33.6,23,30.13,10.0,ESE,9.2,19.6,N/A,,Clear,120,2013-05-03 20:56:00
5:17 PM,74.3,34.7,24,30.13,10.0,SE,16.1,26.5,N/A,,Clear,130,2013-05-03 21:17:00
5:37 PM,74.1,35.8,25,30.12,10.0,ESE,13.8,25.3,N/A,,Clear,120,2013-05-03 21:37:00
5:57 PM,74.3,36.7,25,30.12,10.0,SE,11.5,20.7,N/A,,Clear,130,2013-05-03 21:57:00
6:17 PM,74.3,38.1,27,30.12,10.0,ESE,9.2,23.0,N/A,,Clear,120,2013-05-03 22:17:00
6:37 PM,73.0,37.6,28,30.12,10.0,SE,13.8,25.3,N/A,,Clear,140,2013-05-03 22:37:00
6:56 PM,72.5,38.7,29,30.12,10.0,SE,8.1,-,N/A,,Clear,130,2013-05-03 22:56:00
7:17 PM,72.0,37.9,29,30.12,10.0,ESE,8.1,20.7,N/A,,Clear,120,2013-05-03 23:17:00
7:37 PM,70.9,38.5,31,30.12,10.0,ESE,11.5,17.3,N/A,,Clear,110,2013-05-03 23:37:00
7:57 PM,69.6,38.5,32,30.13,10.0,ESE,6.9,17.3,N/A,,Clear,120,2013-05-03 23:57:00
8:17 PM,68.4,39.0,34,30.13,10.0,ESE,6.9,16.1,N/A,,Clear,110,2013-05-04 00:17:00
8:37 PM,67.3,39.2,36,30.14,10.0,ESE,9.2,-,N/A,,Clear,110,2013-05-04 00:37:00
8:57 PM,65.7,40.3,39,30.15,10.0,ESE,8.1,-,N/A,,Clear,110,2013-05-04 00:57:00
9:17 PM,65.1,40.1,40,30.15,10.0,ESE,10.4,16.1,N/A,,Clear,110,2013-05-04 01:17:00
9:37 PM,65.3,39.9,39,30.15,10.0,East,11.5,18.4,N/A,,Clear,100,2013-05-04 01:37:00
9:56 PM,65.3,39.6,39,30.15,10.0,ESE,15.0,20.7,N/A,,Clear,110,2013-05-04 01:56:00
10:17 PM,64.9,39.4,39,30.16,10.0,ESE,15.0,21.9,N/A,,Clear,110,2013-05-04 02:17:00
10:37 PM,63.9,39.9,41,30.16,10.0,ESE,11.5,17.3,N/A,,Clear,110,2013-05-04 02:37:00
10:56 PM,63.7,40.1,42,30.16,10.0,ESE,9.2,20.7,N/A,,Clear,120,2013-05-04 02:56:00
11:17 PM,62.8,40.5,44,30.16,10.0,ESE,8.1,18.4,N/A,,Clear,120,2013-05-04 03:17:00
11:37 PM,62.4,40.5,44,30.17,10.0,ESE,11.5,16.1,N/A,,Clear,120,2013-05-04 03:37:00
11:57 PM,61.7,40.5,46,30.17,10.0,ESE,12.7,16.1,N/A,,Clear,120,2013-05-04 03:57:00